Voltar ao catálogo

LEMUR-2 CARROLLEMO

AtivoCiênciaSSO
NORAD 68489·PAYLOAD·🇩🇪 Germany

Lançado Mar 30, 2026 de Vandenberg Space Force Base

Loading…

Próximas Passagens (próximas 24 horas)

TLE

AtualizadoSource: Space-Track

Época: Sep 14, 2026, 14:32 UTC

1 68489U 26067CB  26257.60558747  .00002119  00000-0  21403-3 0  9996
2 68489  97.7626 214.3611 0003427 109.7396 250.4192 14.92097477 25058

Acompanhe LEMUR-2 CARROLLEMO em tempo real com AllMySat

Download on the App Store